Home > Time Zones > World Clock > Weather > U.S.A. > Yuma > Past weeks

Flag for U.S.A. Weather past 2 weeks in Yuma, Arizona, U.S.A.

Now
95 °F

Passing clouds.


Feels Like: 98 °F
Forecast: 86 / 108 °F
Wind: 9 mph from Northeast

Location: Yuma Marine Corps Air Station

Current Time: Jul 30, 2015 at 11:15:57 PM

Latest Report: Jul 30, 2015 at 10:57 PM


Visibility: 10 mi

Pressure: 29.88 "Hg

Humidity: 37%

Dew point: 65 °F

Location of YumaLocation

Historic Weather in Yuma — Graph

°F

Yuma temperature yesterday

Maximum temperature yesterday: 102 °F (at 4:57 PM)
Minimum temperature yesterday: 89 °F (at 1:57 AM)
Average temperature yesterday: 94 °F

Past Weeks' High & Low Weather Summary

 TemperatureHumidityPressure
High110 °F (Jul 25, 2:57 PM)88% (Jul 19, 12:57 AM)30.02 "Hg (Jul 19, 12:57 AM)
Low78 °F (Jul 19, 1:57 AM)6% (Jul 25, 2:57 PM)29.65 "Hg (Jul 21, 6:57 PM)
Average93 °F40%29.81 "Hg
* Reported Jul 15 9:57 PM — Jul 30 9:57 PM, Yuma, Weather by CustomWeather, © 2015

Note: Actual official high and low records may vary slightly from our data, if they occured in-between our weather recording intervals... More about our weather records

Advertising

Yuma weather history for previous 24 hours

 ConditionsComfort  
Time TempWeatherWind HumidityBarometerVisibility
9:57 PM
Thu, Jul 30
96 °FThunderstorms. Partly cloudy.10 mph36%29.89 "Hg10 mi
8:57 PM99 °FPartly cloudy.6 mph35%29.87 "Hg10 mi
7:57 PM102 °FPartly cloudy.13 mph30%29.83 "Hg10 mi
6:57 PM105 °FBroken clouds.15 mph27%29.80 "Hg10 mi
5:57 PM108 °FBroken clouds.8 mph22%29.78 "Hg10 mi
4:57 PM108 °FBroken clouds.6 mph22%29.79 "Hg10 mi
3:57 PM108 °FBroken clouds.7 mph23%29.80 "Hg10 mi
2:57 PM107 °FBroken clouds.8 mph23%29.83 "Hg10 mi
1:57 PM106 °FBroken clouds.7 mph25%29.86 "Hg10 mi
12:57 PM105 °FBroken clouds.No wind25%29.89 "Hg10 mi
11:57 AM103 °FScattered clouds.No wind28%29.91 "Hg10 mi
10:57 AM100 °FPassing clouds.5 mph31%29.92 "Hg10 mi
9:57 AM99 °FScattered clouds.No wind31%29.93 "Hg10 mi
8:57 AM96 °FScattered clouds.6 mph34%29.93 "Hg10 mi
7:57 AM92 °FPassing clouds.5 mph41%29.93 "Hg10 mi
6:57 AM88 °FScattered clouds.6 mph46%29.91 "Hg10 mi
5:57 AM86 °FScattered clouds.3 mph51%29.89 "Hg10 mi
4:57 AM88 °FClear.No wind48%29.87 "Hg10 mi
3:57 AM88 °FClear.No wind48%29.87 "Hg10 mi
2:57 AM89 °FClear.No wind45%29.87 "Hg10 mi
1:57 AM90 °FClear.3 mph43%29.87 "Hg10 mi
12:57 AM91 °FClear.No wind42%29.88 "Hg10 mi
11:57 PM
Wed, Jul 29
93 °FClear.No wind40%29.88 "Hg10 mi
Weather by CustomWeather, © 2015

See weather overviewHow to use our weather pages